Mount Laurel, NJ

3:41 PM EST on February 26, 2017 (GMT -0500)
South Jersey Regional

Weather History for KVAY - October, 2012

Change the Weather History Date:

Sunday, October 7, 2012

  Actual Average (KPNE) Record (KPNE)
Temperature  
Mean Temperature 48 °F -  
Max Temperature 52 °F 67 °F 88 °F (2007)
Min Temperature 43 °F 47 °F 37 °F (1999)
Degree Days  
Heating Degree Days 18    
Moisture  
Dew Point 44 °F    
Average Humidity 84    
Maximum Humidity 93    
Minimum Humidity 71    
Precipitation  
Precipitation 0.13 in - - ()
Sea Level Pressure  
Sea Level Pressure 30.08 in    
Wind  
Wind Speed 1 mph (WNW)    
Max Wind Speed 5 mph    
Max Gust Speed -    
Visibility 9 miles    
Events Rain    
Averages and records for this station are not official NWS values.
T = Trace of Precipitation, MM = Missing Value Source: NWS Daily Summary

Daily Weather History Graph

Daily Weather History Graph

Search for Another Location

Airport or City:

Trip Planner

Search our weather history database for the weather conditions in past years. The results will help you decide how hot, cold, wet, or windy it might be!

Date:

Astronomy

Oct. 07, 2012 Rise Set
Actual Time 7:02 AM EDT 6:31 PM EDT
Civil Twilight 6:35 AM EDT 6:58 PM EDT
Nautical Twilight 6:03 AM EDT 7:29 PM EDT
Astronomical Twilight 5:32 AM EDT 8:01 PM EDT
Moon 11:40 PM EDT (10/7) 1:37 PM EDT (10/7)
Length of Visible Light 12h 23m
Length of Day
11h 29m
Waning Gibbous, 56% of the Moon is Illuminated
Oct 7
Waning Gibbous
Oct 8
Last Quarter
Oct 15
New
Oct 21
First Quarter
Oct 29
Full

Hourly Weather History & Observations

Time (EDT) Temp. Dew Point Humidity Pressure Visibility Wind Dir Wind Speed Gust Speed Precip Events Conditions
12:54 AM 48.0 °F 43.0 °F 83% 30.02 in 10.0 mi Calm Calm - N/A   Clear
1:54 AM 50.0 °F 43.0 °F 77% 30.04 in 10.0 mi NW 3.5 mph - N/A   Clear
3:54 AM 45.0 °F 42.1 °F 90% 30.04 in 10.0 mi Calm Calm - N/A   Clear
4:54 AM 48.0 °F 43.0 °F 83% 30.07 in 10.0 mi WNW 3.5 mph - N/A   Clear
5:54 AM 45.0 °F 42.1 °F 90% 30.06 in 10.0 mi Calm Calm - N/A   Partly Cloudy
6:54 AM 43.0 °F 41.0 °F 93% 30.09 in 10.0 mi Calm Calm - N/A   Unknown
7:54 AM 46.0 °F 44.1 °F 93% 30.10 in 10.0 mi Calm Calm - N/A   Unknown
8:54 AM 48.9 °F 44.1 °F 83% 30.11 in 10.0 mi Calm Calm - N/A   Unknown
9:54 AM 50.0 °F 45.0 °F 83% 30.12 in 10.0 mi Calm Calm - N/A   Overcast
10:54 AM 52.0 °F 44.1 °F 74% 30.13 in 10.0 mi NW 4.6 mph - N/A   Overcast
11:54 AM 51.1 °F 44.1 °F 77% 30.13 in 7.0 mi Calm Calm - 0.03 in Rain Light Rain
12:54 PM 51.1 °F 42.1 °F 71% 30.10 in 10.0 mi Calm Calm - 0.03 in Rain Light Rain
1:54 PM 50.0 °F 44.1 °F 80% 30.08 in 10.0 mi Calm Calm - 0.01 in Rain Light Rain
2:54 PM 51.1 °F 43.0 °F 74% 30.06 in 10.0 mi Calm Calm - 0.00 in   Overcast
3:54 PM 51.1 °F 44.1 °F 77% 30.04 in 10.0 mi Calm Calm - N/A   Overcast
4:54 PM 51.1 °F 46.0 °F 83% 30.03 in 10.0 mi Calm Calm - 0.00 in   Overcast
5:54 PM 51.1 °F 45.0 °F 80% 30.03 in 10.0 mi Calm Calm - N/A   Overcast
6:06 PM 51.8 °F 46.4 °F 82% 30.04 in 10.0 mi Calm Calm - N/A   Overcast
6:15 PM 51.8 °F 46.4 °F 82% 30.04 in 10.0 mi Calm Calm - N/A   Overcast
6:54 PM 51.1 °F 46.9 °F 86% 30.07 in 10.0 mi Calm Calm - N/A   Overcast
7:54 PM 48.9 °F 46.0 °F 90% 30.09 in 8.0 mi Variable 4.6 mph - 0.04 in Rain Light Rain
8:54 PM 48.9 °F 46.0 °F 90% 30.13 in 6.0 mi Calm Calm - 0.01 in Rain Light Rain
9:54 PM 48.9 °F 46.0 °F 90% 30.14 in 10.0 mi West 3.5 mph - 0.01 in   Overcast
10:54 PM 48.9 °F 46.9 °F 93% 30.14 in 10.0 mi West 3.5 mph - N/A   Overcast
11:54 PM 46.0 °F 44.1 °F 93% 30.13 in 2.5 mi Calm Calm - N/A   Clear